Regional Weather Roundup
Issued by NWS

Home | Current Version | Previous Version | Text Only | Print | Product List | Glossary Off
Versions: 1 2 3 4 5 6 7 8 9 10 11 12 13 14 15 16 17 18 19 20 21 22 23 24 25 26 27 28 29 30 31 32 33 34 35 36 37 38 39 40 41 42 43 44 45 46 47 48 49 50

000
ASUS43 KIND 272309
RWRIN

WEATHER ROUNDUP FOR INDIANA
NATIONAL WEATHER SERVICE INDIANAPOLIS IN
600 PM EST TUE JAN 27 2015

NOTE: "FAIR" INDICATES FEW OR NO CLOUDS BELOW 12,000 FEET WITH NO
SIGNIFICANT WEATHER AND/OR OBSTRUCTIONS TO VISIBILITY.

* - STATION DOES NOT REPORT WEATHER SUCH AS PRECIPITATION OR FOG.

+ - STATION NOT QUALITY CONTROLLED BY THE NATIONAL WEATHER SERVICE.
    USE DATA WITH CAUTION...ESPECIALLY DEWPOINT AND RELATIVE
    HUMIDITY OBSERVATIONS.

INZ001>003-010>013-019-020-280000-
NORTHWEST INDIANA

CITY           SKY/WX    TMP DP  RH WIND       PRES   REMARKS
GARY /AIRPORT/ PTCLDY    28  14  54 N12       30.23R WCI  18
KNOX *+        CLEAR     26  -3  28 N8        30.19R WCI  18
LA PORTE +     CLEAR     27  15  61 N8        30.20S WCI  18
MICHIGAN CITY+ CLEAR     27  10  50 N7        30.22R WCI  19
MONTICELLO +   CLEAR     26  16  64 N6        30.19R WCI  20
RENSSELAER +   CLEAR     30  18  59 N7        30.21R WCI  23
VALPARAISO     CLEAR     26  15  63 N5        30.20R WCI  20

$$

LMZ046-743>745-280000-
SOUTHERN LAKE MICHIGAN

STATION/POSITION TIME  TEMP WIND        PRES
                       AIR  DIR/SP/G
                 (UTC) (F)  (DEG/KT/KT) (MB)
MICHIGAN CITY    2300   26  360/ 11/ 13   N/A

$$

INZ004-005-014>016-021>024-280000-
NORTH CENTRAL INDIANA

CITY           SKY/WX    TMP DP  RH WIND       PRES   REMARKS
ELKHART        CLEAR     27   5  39 CALM      30.19S
GOSHEN         CLEAR     25  10  53 NW8       30.18R WCI  16
LOGANSPORT +   CLEAR     27  12  54 CALM      30.20R
PERU/GRISSOM   CLEAR     22  14  71 W3        30.17R
ROCHESTER +    CLEAR     28  14  54 CALM      30.19R
SOUTH BEND     CLEAR     25  11  55 N5        30.19S WCI  19
WARSAW +       CLEAR     27  10  50 N3        30.18R

$$

INZ006>009-017-018-025>027-280000-
NORTHEAST INDIANA

CITY           SKY/WX    TMP DP  RH WIND       PRES   REMARKS
ANGOLA *+      CLEAR     23  10  58 N3        30.16R
AUBURN +       CLEAR     25  10  54 NW3       30.18R
FORT WAYNE     PTCLDY    22  11  62 NW6       30.18R WCI  14
HUNTINGTON +   CLEAR     23   6  49 N6        30.18R WCI  16

$$

INZ028-029-035-036-043>045-051>053-280000-
WEST CENTRAL INDIANA

CITY           SKY/WX    TMP DP  RH WIND       PRES   REMARKS
CRAWFORDSVL +  CLEAR     26   6  44 N7        30.19R WCI  18
GREENCASTLE +  CLEAR     28  14  54 N6        30.18S WCI  22
LAFAYETTE      CLEAR     26  13  57 CALM      30.20S
TERRE HAUTE    CLOUDY    30  25  81 N6        30.20R WCI  24

$$

INZ030>032-037>040-046>048-054>057-064-065-280000-
CENTRAL INDIANA

CITY           SKY/WX    TMP DP  RH WIND       PRES   REMARKS
CP ATTERBURY + PTCLDY    30  14  51 CALM      30.18R
COLUMBUS       CLEAR     28  14  54 N7        30.18R WCI  21
INDIANAPOLIS   PTCLDY    25  12  58 NW9       30.17R WCI  15
-EAGLE CREEK   CLEAR     27  10  49 N8        30.17R WCI  19
KOKOMO *+      CLEAR     23  10  58 W6        30.18R WCI  16
MARION +       CLEAR     24  12  59 N5        30.18R WCI  18
MT COMFORT *+  CLEAR     27   9  46 N8        30.18R WCI  18
SHELBYVILLE    CLEAR     29  13  51 N7        30.16R WCI  22
ZIONSVILLE +   CLEAR     27  13  56 N7        30.18R WCI  19

$$

INZ033-034-041-042-049-050-058-059-280000-
EAST CENTRAL INDIANA

CITY           SKY/WX    TMP DP  RH WIND       PRES   REMARKS
MUNCIE         CLEAR     21  12  68 N7        30.17R WCI  12

$$

INZ060-061-067>069-081>083-085>088-280000-
SOUTHWEST INDIANA

CITY           SKY/WX    TMP DP  RH WIND       PRES   REMARKS
EVANSVILLE     CLOUDY    35  28  75 N7        30.21R WCI  29
HUNTINGBURG *+ CLOUDY    32  27  80 CALM      30.19R
WASHINGTON +   CLOUDY    32  28  87 N5        30.20R WCI  27

$$

INZ062-063-066-070>080-084-089>092-280000-
SOUTH CENTRAL AND SOUTHEAST INDIANA

CITY           SKY/WX    TMP DP  RH WIND       PRES   REMARKS
BLOOMINGTON    CLOUDY    30  24  78 N8        30.17R WCI  22
SEYMOUR +      CLOUDY    30  16  55 N6        30.18  WCI  24

$$



USA.gov is the U.S. government's official web portal to all federal, state and local government web resources and services.